Powrót do katalogu

STARLINK-4289

AktywnyŁącznośćVLEO
NORAD 53024·PAYLOAD·🇺🇸 United States

Wystrzelony Jul 7, 2022 z Cape Canaveral Space Force Station

Loading…

Następne Przeloty (najbliższe 24 godziny)

TLE

ŚwieżeSource: CelesTrak SupGP

Epoka: Sep 15, 2026, 01:32 UTC

1 53024C 22076AQ  26258.06437500  .00026373  00000+0  75435-3 0  2584
2 53024  53.1579 306.8335 0001201  92.8511 125.8760 15.35393842    17

Śledź STARLINK-4289 w czasie rzeczywistym z AllMySat

Download on the App Store